GW3926 Weather Reports


time (UTC)temp
C
wind
direction
speed
KPH
gust
KPH
rain 1hr
cm
rain 24hr
cm
rain mn
cm
humidity
%
barometer
mb
20260510204520 20 12 1.6 14.5 0.00 0.66 0.00 36 1020.1
20260510204012 20 249 3.2 14.5 0.00 0.66 0.00 35 1020.1
20260510203507 20 301 4.8 14.5 0.00 0.66 0.00 34 1020.0
20260510203023 20 223 3.2 11.3 0.00 0.66 0.00 35 1019.9
20260510202515 20 219 1.6 17.7 0.00 0.66 0.00 35 1020.0
20260510202012 21 290 3.2 17.7 0.00 0.66 0.00 36 1020.0
20260510201522 21 296 1.6 12.9 0.00 0.66 0.00 34 1020.0
20260510201007 20 78 3.2 12.9 0.00 0.66 0.00 36 1020.0
20260510200504 20 40 4.8 11.3 0.00 0.66 0.00 36 1020.0
20260510200012 20 46 1.6 8.0 0.00 0.66 0.00 34 1020.0
20260510195506 20 276 3.2 9.7 0.00 0.66 0.00 38 1020.0
20260510195006 20 56 3.2 9.7 0.00 0.66 0.00 40 1020.0
20260510194517 20 290 4.8 9.7 0.00 0.66 0.00 38 1020.1
20260510194010 20 328 0.0 12.9 0.00 0.66 0.00 38 1020.1
20260510193508 20 211 3.2 12.9 0.00 0.66 0.00 38 1020.2
20260510193022 20 268 4.8 16.1 0.00 0.66 0.00 35 1020.2
20260510192509 20 233 1.6 16.1 0.00 0.66 0.00 37 1020.2
20260510192009 19 215 4.8 11.3 0.00 0.66 0.00 38 1020.4
20260510191525 19 253 1.6 11.3 0.00 0.66 0.00 40 1020.3
20260510191017 19 277 3.2 11.3 0.00 0.66 0.00 39 1020.2
20260510190508 18 9 0.0 9.7 0.00 0.66 0.00 40 1020.3
20260510190033 18 188 1.6 8.0 0.00 0.66 0.00 39 1020.3
20260510185508 18 242 0.0 8.0 0.00 0.66 0.00 41 1020.3
20260510185004 18 257 1.6 12.9 0.00 0.66 0.00 40 1020.1
20260510184515 18 284 3.2 12.9 0.00 0.66 0.00 38 1020.1
20260510184008 18 269 3.2 12.9 0.00 0.66 0.00 38 1020.0
20260510183508 18 303 1.6 14.5 0.00 0.66 0.00 39 1020.1
20260510183020 18 128 1.6 14.5 0.00 0.66 0.00 39 1020.1
20260510182509 19 242 1.6 12.9 0.00 0.66 0.00 37 1020.0
20260510182009 20 265 4.8 12.9 0.00 0.66 0.00 42 1020.0
20260510181522 20 269 6.4 11.3 0.00 0.66 0.00 38 1019.8
20260510181009 19 323 6.4 11.3 0.00 0.66 0.00 36 1019.8
20260510180508 19 184 1.6 6.4 0.00 0.66 0.00 37 1019.8
20260510180026 20 131 1.6 9.7 0.00 0.66 0.00 42 1019.9
20260510175508 18 28 3.2 16.1 0.00 0.66 0.00 41 1019.9
20260510175013 18 44 3.2 16.1 0.00 0.66 0.00 41 1020.0
20260510174528 18 69 3.2 9.7 0.00 0.66 0.00 45 1020.1
20260510174009 18 86 1.6 8.0 0.00 0.66 0.00 44 1020.2
20260510173507 17 106 1.6 8.0 0.00 0.66 0.00 46 1020.0
20260510173024 17 5 1.6 6.4 0.00 0.66 0.00 45 1020.1
20260510172509 17 211 1.6 6.4 0.00 0.66 0.00 49 1020.2
20260510172009 17 235 0.0 8.0 0.00 0.66 0.00 47 1020.4
20260510171525 17 277 3.2 14.5 0.00 0.66 0.00 46 1020.4
20260510171007 17 61 1.6 14.5 0.00 0.66 0.00 48 1020.4
20260510170504 17 278 4.8 12.9 0.00 0.66 0.00 47 1020.3
20260510170006 18 248 3.2 12.9 0.00 0.66 0.00 49 1020.3
20260510165504 17 44 0.0 6.4 0.00 0.66 0.00 51 1020.5
20260510165011 17 48 1.6 6.4 0.00 0.66 0.00 52 1020.5
20260510164522 17 43 1.6 6.4 0.00 0.66 0.00 51 1020.5
20260510164007 16 15 0.0 4.8 0.00 0.66 0.00 52 1020.4
20260510163505 16 53 0.0 4.8 0.00 0.66 0.00 51 1020.3
20260510163028 16 300 1.6 6.4 0.00 0.66 0.00 54 1020.4
20260510162506 16 275 3.2 6.4 0.00 0.66 0.00 53 1020.4
20260510162013 16 360 1.6 3.2 0.00 0.66 0.00 54 1020.4
20260510161519 16 78 0.0 3.2 0.00 0.66 0.00 54 1020.5
20260510161003 16 130 0.0 4.8 0.00 0.66 0.00 52 1020.6
20260510160503 16 284 1.6 8.0 0.00 0.66 0.00 52 1020.6
20260510160005 17 191 0.0 9.7 0.00 0.66 0.00 60 1020.7
20260510155506 16 286 3.2 9.7 0.00 0.66 0.00 54 1020.6
20260510155005 16 81 1.6 9.7 0.00 0.66 0.00 57 1020.6
20260510154508 16 106 3.2 9.7 0.00 0.66 0.00 58 1020.5
20260510154005 15 67 0.0 12.9 0.00 0.66 0.00 59 1020.5
20260510153507 15 299 3.2 12.9 0.00 0.66 0.00 61 1020.3
20260510153014 15 9 1.6 12.9 0.00 0.66 0.00 61 1020.4
20260510152510 15 311 3.2 11.3 0.00 0.66 0.00 61 1020.3
20260510152011 15 36 1.6 6.4 0.00 0.66 0.00 64 1020.2
20260510151526 14 258 1.6 11.3 0.00 0.66 0.00 62 1020.1
20260510151010 14 269 1.6 11.3 0.00 0.66 0.00 62 1019.9
20260510150506 15 264 3.2 6.4 0.00 0.66 0.00 62 1020.0
20260510150024 15 283 1.6 9.7 0.00 0.66 0.00 63 1019.9
20260510145503 15 259 0.0 9.7 0.00 0.66 0.00 63 1019.9
20260510145004 15 53 1.6 4.8 0.00 0.66 0.00 62 1020.0
20260510144510 15 111 1.6 4.8 0.00 0.66 0.00 62 1019.9
20260510144004 14 249 0.0 6.4 0.00 0.66 0.00 63 1019.8
20260510143506 14 207 0.0 9.7 0.00 0.66 0.00 65 1019.5
20260510143010 15 71 1.6 9.7 0.00 0.66 0.00 63 1019.5
20260510142507 15 308 1.6 8.0 0.00 0.66 0.00 62 1019.6
20260510142011 15 325 1.6 9.7 0.00 0.66 0.00 63 1019.5
20260510141516 15 67 3.2 9.7 0.00 0.66 0.00 63 1019.4
20260510141011 14 246 0.0 4.8 0.00 0.66 0.00 64 1019.3
20260510140511 14 67 0.0 4.8 0.00 0.66 0.00 67 1019.3
20260510140022 14 17 0.0 4.8 0.00 0.66 0.00 66 1019.1
20260510135509 14 59 0.0 8.0 0.00 0.66 0.00 64 1019.1
20260510135011 14 336 1.6 8.0 0.00 0.66 0.00 65 1019.1
20260510134526 15 46 0.0 4.8 0.00 0.66 0.00 65 1019.1
20260510134003 15 64 0.0 6.4 0.00 0.66 0.00 65 1019.0
20260510133504 14 44 1.6 6.4 0.00 0.66 0.00 64 1018.9
20260510133007 14 63 0.0 9.7 0.00 0.66 0.00 67 1019.1
20260510132506 14 26 3.2 9.7 0.00 0.66 0.00 67 1019.1
20260510132009 14 330 1.6 6.4 0.00 0.66 0.00 66 1019.2
20260510131513 13 37 1.6 6.4 0.00 0.66 0.00 68 1019.0
20260510131007 13 228 1.6 6.4 0.00 0.66 0.00 71 1019.0
20260510130505 13 155 0.0 11.3 0.00 0.66 0.00 71 1018.8
20260510130019 13 223 3.2 11.3 0.00 0.66 0.00 72 1018.8
20260510125507 13 246 1.6 4.8 0.00 0.66 0.00 74 1018.6
20260510125009 13 279 0.0 3.2 0.00 0.66 0.00 75 1018.5
20260510124528 13 49 0.0 3.2 0.00 0.66 0.00 74 1018.5
20260510124008 12 277 0.0 9.7 0.00 0.66 0.00 76 1018.4
20260510123507 12 18 0.0 9.7 0.00 0.66 0.00 77 1018.3
20260510123026 12 320 0.0 3.2 0.00 0.66 0.00 78 1018.1
20260510122503 12 139 0.0 3.2 0.00 0.66 0.00 79 1018.1
20260510122007 12 228 0.0 3.2 0.00 0.66 0.00 80 1018.1
20260510121511 12 265 0.0 3.2 0.00 0.66 0.00 82 1018.0
20260510121007 11 309 0.0 3.2 0.00 0.66 0.00 82 1018.0
20260510120513 11 215 0.0 6.4 0.00 0.66 0.00 82 1018.0
20260510120024 11 360 1.6 6.4 0.00 0.66 0.00 82 1017.8
20260510115505 11 238 0.0 6.4 0.00 0.66 0.00 83 1017.7
20260510115011 11 325 0.0 4.8 0.00 0.66 0.00 84 1017.5
20260510114526 11 43 1.6 4.8 0.00 0.66 0.00 86 1017.3
20260510114010 11 40 0.0 3.2 0.00 0.66 0.00 86 1017.2
20260510113508 11 282 0.0 3.2 0.00 0.66 0.00 87 1017.1
20260510113022 11 223 0.0 3.2 0.00 0.66 0.00 89 1017.0
20260510112508 11 219 0.0 3.2 0.00 0.66 0.00 89 1016.9
20260510112012 11 286 0.0 3.2 0.00 0.66 0.00 89 1016.7
20260510111526 11 286 0.0 3.2 0.00 0.66 0.00 89 1016.6
20260510111004 11 286 0.0 3.2 0.00 0.66 0.00 89 1016.6
20260510110508 11 155 0.0 0.0 0.00 0.66 0.00 88 1016.5
20260510110013 11 155 0.0 3.2 0.00 0.66 0.00 87 1016.4
20260510105508 11 224 0.0 3.2 0.00 0.66 0.00 87 1016.3
20260510105005 11 274 0.0 3.2 0.00 0.66 0.00 88 1016.2
20260510104527 11 305 0.0 3.2 0.00 0.66 0.00 89 1016.1
20260510104010 11 320 0.0 3.2 0.00 0.66 0.00 89 1016.1
20260510103512 11 234 0.0 1.6 0.00 0.66 0.00 90 1016.2
20260510103021 11 344 0.0 3.2 0.00 0.66 0.00 90 1016.1
20260510102510 11 344 0.0 3.2 0.00 0.66 0.00 90 1016.1
20260510102008 12 274 0.0 3.2 0.00 0.66 0.00 90 1016.0
20260510101524 12 78 0.0 3.2 0.00 0.66 0.00 90 1015.8
20260510101008 12 240 0.0 3.2 0.00 0.66 0.00 91 1015.7
20260510100509 12 240 1.6 3.2 0.00 0.66 0.00 91 1015.7
20260510100026 12 251 0.0 3.2 0.00 0.66 0.00 91 1015.6
20260510095505 12 229 0.0 3.2 0.00 0.66 0.00 92 1015.5
20260510095014 12 38 0.0 3.2 0.00 0.66 0.00 92 1015.4
20260510094533 12 352 0.0 3.2 0.00 0.66 0.00 92 1015.7
20260510094005 12 215 0.0 4.8 0.00 0.66 0.00 93 1015.6
20260510093509 12 279 0.0 4.8 0.00 0.66 0.00 93 1015.5
20260510093022 12 250 0.0 3.2 0.00 0.66 0.00 93 1015.4
20260510092511 12 230 0.0 3.2 0.00 0.66 0.00 93 1015.3
20260510092008 12 260 0.0 3.2 0.00 0.66 0.00 93 1015.4
20260510091530 12 281 0.0 3.2 0.00 0.66 0.00 94 1015.3
20260510091008 12 260 0.0 3.2 0.00 0.66 0.00 94 1015.3
20260510090510 12 247 0.0 0.0 0.00 0.66 0.00 94 1015.2
20260510090026 12 285 0.0 3.2 0.00 0.66 0.00 94 1015.0
20260510085508 12 285 0.0 3.2 0.00 0.66 0.00 94 1014.9
20260510085010 12 257 0.0 3.2 0.00 0.66 0.00 94 1014.6
20260510084525 12 266 0.0 0.0 0.00 0.66 0.00 94 1014.5
20260510084011 12 266 0.0 0.0 0.00 0.66 0.00 94 1014.5
20260510083508 13 266 0.0 0.0 0.00 0.66 0.00 94 1014.3
20260510083030 13 266 0.0 0.0 0.00 0.66 0.00 94 1014.2
20260510082507 13 266 0.0 0.0 0.00 0.66 0.00 94 1014.1
20260510082015 13 266 0.0 3.2 0.00 0.66 0.00 94 1014.1
20260510081524 13 266 0.0 3.2 0.00 0.66 0.00 93 1014.1
20260510081007 13 259 0.0 3.2 0.00 0.69 0.00 93 1014.1
20260510080504 13 263 0.0 3.2 0.00 0.69 0.00 93 1013.9
20260510080016 13 221 0.0 3.2 0.00 0.69 0.00 93 1013.7
20260510075503 13 221 0.0 3.2 0.00 0.69 0.00 93 1013.6
20260510075007 13 267 0.0 1.6 0.00 0.69 0.00 93 1013.5
20260510074510 13 244 0.0 1.6 0.00 0.69 0.00 93 1013.5
20260510074006 14 337 0.0 3.2 0.00 0.69 0.00 93 1013.4
20260510073507 14 352 0.0 3.2 0.00 0.69 0.00 93 1013.7
20260510073020 14 283 0.0 3.2 0.00 0.69 0.00 94 1013.7
20260510072511 14 291 1.6 3.2 0.00 0.69 0.00 94 1013.5
20260510072009 14 255 0.0 1.6 0.00 0.69 0.00 94 1013.5
20260510071527 14 282 0.0 0.0 0.00 0.69 0.00 94 1013.5
20260510071006 14 282 0.0 0.0 0.00 0.69 0.00 94 1013.5
20260510070503 14 26 0.0 0.0 0.00 0.69 0.00 93 1013.4
20260510070004 14 352 0.0 3.2 0.00 0.69 0.00 93 1013.5
20260510065504 14 352 0.0 3.2 0.00 0.69 0.00 93 1013.5
20260510065003 14 352 0.0 4.8 0.00 0.69 0.00 94 1013.6
20260510064508 14 27 0.0 4.8 0.00 0.69 0.00 94 1013.6
20260510064006 14 243 0.0 0.0 0.00 0.69 0.00 94 1013.6
20260510063507 14 30 0.0 3.2 0.00 0.69 0.00 94 1013.4
20260510063016 14 38 0.0 3.2 0.00 0.69 0.00 94 1013.5
20260510062508 14 171 0.0 1.6 0.00 0.69 0.00 94 1013.5
20260510062009 14 265 0.0 0.0 0.00 0.69 0.00 94 1013.5
20260510061518 14 265 0.0 0.0 0.00 0.69 0.00 94 1013.3
20260510061009 15 265 0.0 3.2 0.00 0.69 0.00 93 1013.5
20260510060512 15 265 0.0 3.2 0.00 0.69 0.00 93 1013.6
20260510060036 15 228 0.0 3.2 0.00 0.69 0.00 94 1013.6
20260510055507 15 257 0.0 3.2 0.00 0.69 0.00 94 1013.4
20260510055006 15 105 0.0 3.2 0.00 0.69 0.00 94 1013.1
20260510054509 15 27 0.0 4.8 0.00 0.69 0.00 94 1013.1
20260510054006 15 49 0.0 4.8 0.00 0.69 0.00 94 1013.1
20260510053504 15 66 0.0 3.2 0.00 0.69 0.00 94 1013.1
20260510053010 15 288 0.0 4.8 0.03 0.69 0.00 94 1012.9
20260510052511 15 62 0.0 4.8 0.03 0.69 0.00 94 1012.7
20260510052009 15 40 0.0 4.8 0.03 0.69 0.00 94 1012.7
20260510051516 15 72 1.6 4.8 0.05 0.69 0.00 94 1012.6
20260510051007 15 43 0.0 4.8 0.08 0.69 0.00 93 1012.8
20260510050505 15 352 0.0 4.8 0.08 0.69 0.00 93 1012.8
20260510050018 15 153 0.0 3.2 0.10 0.69 0.00 93 1012.9
20260510045514 15 348 0.0 6.4 0.15 0.69 0.69 93 1012.7
20260510045009 15 338 0.0 6.4 0.18 0.69 0.69 93 1012.3
20260510044525 15 58 1.6 4.8 0.20 0.69 0.69 93 1012.2
20260510044003 15 294 0.0 1.6 0.23 0.69 0.69 93 1012.6
20260510043505 15 17 0.0 4.8 0.23 0.69 0.69 93 1012.2
20260510043011 15 130 1.6 6.4 0.23 0.66 0.66 93 1012.0
20260510042507 15 70 0.0 6.4 0.28 0.66 0.66 92 1012.0
20260510042003 15 134 1.6 8.0 0.30 0.66 0.66 92 1012.1
20260510041514 15 272 0.0 9.7 0.36 0.64 0.64 92 1012.7
20260510041005 15 61 4.8 9.7 0.41 0.61 0.61 92 1012.5
20260510040507 15 271 4.8 9.7 0.51 0.61 0.61 92 1012.8
20260510040019 15 323 3.2 8.0 0.56 0.58 0.58 91 1013.0
20260510035508 15 59 1.6 12.9 0.51 0.53 0.53 91 1012.7
20260510035009 15 65 4.8 12.9 0.48 0.51 0.51 90 1012.5
20260510034523 16 51 3.2 9.7 0.46 0.48 0.48 90 1012.7
20260510034009 16 57 1.6 9.7 0.43 0.46 0.46 90 1013.1
20260510033512 16 350 3.2 16.1 0.43 0.46 0.46 89 1012.9
20260510033024 16 67 4.8 17.7 0.41 0.43 0.43 89 1013.1
20260510032503 16 259 3.2 24.1 0.36 0.38 0.38 87 1013.3
20260510032006 16 205 6.4 25.7 0.33 0.36 0.36 86 1013.4
20260510031514 16 337 14.5 40.2 0.25 0.28 0.28 84 1013.3
20260510031006 17 283 11.3 51.5 0.18 0.23 0.20 81 1013.3
20260510030508 17 291 19.3 51.5 0.08 0.15 0.10 77 1013.0
20260510030018 19 316 9.7 37.0 0.00 0.10 0.03 72 1012.6
20260510025512 20 257 14.5 27.4 0.00 0.13 0.03 67 1012.0
20260510025011 20 294 0.0 3.2 0.00 0.15 0.03 63 1010.8
20260510024520 20 346 0.0 0.0 0.00 0.18 0.03 61 1010.0
20260510024009 20 346 0.0 0.0 0.00 0.23 0.03 63 1009.9
20260510023507 20 346 0.0 0.0 0.00 0.25 0.03 63 1009.8
20260510023022 20 346 0.0 0.0 0.00 0.28 0.03 64 1009.7
20260510022510 19 347 0.0 0.0 0.00 0.33 0.03 64 1009.7
20260510022010 19 347 0.0 0.0 0.00 0.38 0.03 64 1009.6
20260510021528 19 347 0.0 0.0 0.00 0.43 0.03 65 1009.5
20260510021003 19 347 0.0 0.0 0.00 0.51 0.03 63 1009.4
20260510020504 20 347 0.0 0.0 0.00 0.56 0.03 62 1009.4
20260510020014 19 347 0.0 0.0 0.00 0.61 0.03 63 1009.3
20260510015508 19 347 0.0 0.0 0.00 0.66 0.03 62 1009.3
20260510015007 20 347 0.0 0.0 0.00 0.74 0.03 62 1009.1
20260510014523 20 347 0.0 0.0 0.00 0.81 0.03 62 1009.0
20260510014008 20 347 0.0 0.0 0.00 0.86 0.03 61 1008.9
20260510013511 20 347 0.0 0.0 0.00 0.91 0.03 59 1008.8
20260510013023 20 347 0.0 0.0 0.00 0.94 0.03 59 1008.8
20260510012509 20 347 0.0 0.0 0.00 0.94 0.03 57 1008.7
20260510012011 21 347 0.0 0.0 0.00 0.94 0.03 56 1008.7
20260510011526 21 347 0.0 0.0 0.00 0.94 0.03 55 1008.8
20260510011011 21 252 0.0 0.0 0.00 0.94 0.03 54 1008.8
20260510010511 22 252 0.0 0.0 0.00 0.97 0.03 52 1008.8
20260510010025 22 252 0.0 0.0 0.00 0.97 0.03 49 1008.8
20260510005505 22 252 0.0 0.0 0.00 0.97 0.03 52 1008.8
20260510005007 22 252 0.0 0.0 0.00 0.97 0.03 51 1008.7
20260510004516 23 252 0.0 0.0 0.00 0.97 0.03 50 1008.6
20260510004006 23 252 0.0 0.0 0.00 0.97 0.03 50 1008.6
20260510003508 23 252 0.0 0.0 0.00 0.99 0.03 50 1008.5
20260510003034 23 252 0.0 0.0 0.00 1.02 0.03 48 1008.5
20260510002510 24 252 0.0 0.0 0.00 1.02 0.03 46 1008.4
20260510002007 24 252 0.0 0.0 0.00 1.02 0.03 43 1008.3
20260510001525 25 252 0.0 0.0 0.00 1.04 0.03 43 1008.3
20260510001010 25 252 0.0 0.0 0.00 1.04 0.03 43 1008.3
20260510000510 25 269 0.0 0.0 0.00 1.04 0.03 43 1008.3
20260510000027 25 247 0.0 0.0 0.00 1.04 0.03 44 1008.2
20260509235509 25 244 0.0 1.6 0.00 1.04 0.03 40 1008.2
20260509235008 25 286 0.0 4.8 0.00 1.04 0.03 39 1008.1
20260509234532 26 275 1.6 4.8 0.00 1.04 0.03 38 1008.2
20260509234008 26 273 0.0 3.2 0.00 1.04 0.03 39 1008.3
20260509233508 26 275 0.0 3.2 0.00 1.04 0.03 39 1008.3
20260509233018 26 266 1.6 4.8 0.00 1.04 0.03 37 1008.3
20260509232509 26 286 0.0 4.8 0.00 1.04 0.03 38 1008.2
20260509232009 26 242 3.2 4.8 0.00 1.04 0.03 37 1008.2
20260509231522 26 230 1.6 4.8 0.00 1.04 0.03 38 1008.2
20260509231009 26 315 1.6 9.7 0.00 1.04 0.03 40 1008.1
20260509230503 26 219 0.0 11.3 0.00 1.04 0.03 36 1008.1
20260509230008 26 264 3.2 12.9 0.00 1.04 0.03 37 1008.2
20260509225502 26 281 6.4 12.9 0.00 1.04 0.03 37 1008.2
20260509225005 26 227 3.2 12.9 0.00 1.04 0.03 36 1008.0
20260509224511 26 208 1.6 9.7 0.00 1.04 0.03 39 1008.1
20260509224005 26 297 3.2 11.3 0.00 1.04 0.03 37 1008.2
20260509223510 26 209 4.8 11.3 0.00 1.04 0.03 35 1008.2
20260509223015 26 261 3.2 12.9 0.00 1.04 0.03 40 1008.2
20260509222506 26 241 1.6 14.5 0.00 1.04 0.03 36 1008.2
20260509222008 26 218 4.8 14.5 0.00 1.04 0.03 36 1008.3
20260509221521 26 262 3.2 6.4 0.00 1.04 0.03 37 1008.2
20260509221003 26 228 1.6 9.7 0.00 1.04 0.03 38 1008.1
20260509220503 26 278 3.2 9.7 0.00 1.04 0.03 35 1008.1
20260509220015 26 225 3.2 14.5 0.00 1.04 0.03 38 1008.1
20260509215506 26 306 1.6 14.5 0.00 1.04 0.03 40 1008.1
20260509215005 26 279 3.2 14.5 0.00 1.04 0.03 40 1008.2
20260509214511 26 254 3.2 8.0 0.00 1.04 0.03 35 1008.3
20260509214007 26 82 1.6 16.1 0.00 1.04 0.03 35 1008.3
20260509213504 26 171 3.2 16.1 0.00 1.04 0.03 36 1008.3
20260509213015 26 299 3.2 17.7 0.00 1.04 0.03 37 1008.4
20260509212509 26 286 8.0 17.7 0.00 1.04 0.03 36 1008.5
20260509212010 26 284 3.2 11.3 0.00 1.04 0.03 36 1008.3
20260509211519 26 261 3.2 12.9 0.00 1.04 0.03 36 1008.3
20260509211009 26 280 4.8 17.7 0.00 1.04 0.03 37 1008.5
20260509210508 26 296 6.4 17.7 0.00 1.04 0.03 37 1008.5
20260509210023 26 311 6.4 17.7 0.00 1.04 0.03 38 1008.5
20260509205505 26 246 3.2 12.9 0.00 1.04 0.03 41 1008.5
20260509205003 26 217 6.4 17.7 0.00 1.04 0.03 37 1008.5